Terug naar catalogus

STARLINK-36665

ActiefCommunicatieVLEO
NORAD 68968·PAYLOAD·🇺🇸 United States

Gelanceerd May 1, 2026 vanaf Cape Canaveral Space Force Station

Loading…

Volgende Passages (komende 24 uur)

TLE

VersSource: CelesTrak SupGP

Epoch: Sep 15, 2026, 04:15 UTC

1 68968C 26099T   26258.17756944 -.00022848  00000+0 -67491-3 0  2582
2 68968  53.1564 100.5390 0001272  86.9451 107.3295 15.34408409    12

Volg STARLINK-36665 in realtime met AllMySat

Download on the App Store